Regional Weather Roundup
Issued by NWS

Home | Current Version | Previous Version | Text Only | Print | Product List | Glossary Off
Versions: 1 2 3 4 5 6 7 8 9 10 11 12 13 14 15 16 17 18 19 20 21 22 23 24 25 26 27 28 29 30 31 32 33 34 35 36 37 38 39 40 41 42 43 44 45 46 47 48 49 50

000
ASUS43 KDTX 272201
RWRMI
MICHIGAN HOURLY REGIONAL WEATHER ROUNDUP
NATIONAL WEATHER SERVICE DETROIT/PONTIAC MI
500 PM EST FRI FEB 27 2015

NOTE: "FAIR" INDICATES FEW OR NO CLOUDS BELOW 12,000 FEET WITH NO
SIGNIFICANT WEATHER AND/OR OBSTRUCTION TO VISIBILITY.

MIZ047>049-052>055-059>063-066>070-074>076-081>083-272300-
SOUTHEAST LOWER MICHIGAN

CITY           SKY/WX    TMP DP  RH WIND       PRES   REMARKS
ADRIAN         SUNNY     16  -2  45 NW12      30.57S WCI   3
ALMA           CLOUDY    18   3  53 W9G16     30.53S WCI   6
ANN ARBOR      MOSUNNY   17  -1  45 W8        30.55S WCI   7
BAD AXE        SUNNY     15   3  59 W12       30.52S WCI   2
CARO           SUNNY     16   2  54 W9        30.53R WCI   4
DETROIT CITY   SUNNY     20  -3  36 W7        30.55S WCI  11
DETROIT        MOSUNNY   19  -1  41 W10       30.57S WCI   7
FLINT          SUNNY     18   0  45 W13       30.54S WCI   5
GROSSE ILE     SUNNY     18  -2  41 SW8       30.56S WCI   7
HILLSDALE      SUNNY     15  -1  48 W12       30.53S WCI   1
HOWELL         SUNNY     16  -1  47 SW7       30.53S WCI   6

CITY           SKY/WX    TMP DP  RH WIND       PRES   REMARKS
JACKSON        MOSUNNY   15  -1  49 W7        30.54S WCI   5
LAMBERTVILLE   SUNNY     18  -4  38 CALM      30.59S
LANSING        SUNNY     17   1  49 W9        30.54S WCI   6
LAPEER         FAIR      16   1  51 W6        30.53S WCI   8
MASON          MOSUNNY   17   0  46 W3        30.53S
MT. CLEMENS    MOSUNNY   14   4  64 SE9       30.54R WCI   2
PONTIAC        MOSUNNY   15  -2  46 VRB7      30.52R WCI   5
PORT HOPE        N/A     15   1  53 SW8       30.50S WCI   4
PORT HURON     SUNNY     18  -2  41 W5        30.55S WCI  11
TRI CITIES     SUNNY     18   3  52 W15       30.53S WCI   4
TROY           SUNNY     20  -5  33 NW8G16    30.56S WCI  11
SAGINAW HB     SUNNY     19   3  49 SW14      30.54R WCI   6
$$
MIZ043>046-050>051-056>058-064>065-071>073-077>080-272300-
SOUTHWEST LOWER MICHIGAN

CITY           SKY/WX    TMP DP  RH WIND       PRES   REMARKS
BATTLE CREEK   CLOUDY    18   3  52 W9        30.54S WCI   7
BENTON HARBOR  SUNNY     14   3  61 W7        30.59S WCI   4
BIG RAPIDS     SUNNY     18   0  46 W13       30.48S WCI   4
COLDWATER      MOSUNNY   17   2  53 W7        30.55S WCI   7
FREMONT        FAIR      16  -1  46 W8        30.53S WCI   6
HOLLAND        CLOUDY    17   4  56 W12       30.57R WCI   4
GRAND RAPIDS   FLURRIES  18   8  65 W13       30.54S WCI   5
IONIA          CLOUDY    19   7  57 W13       30.52S WCI   7
KALAMAZOO      PTSUNNY   16   1  51 W6        30.55S WCI   7
LUDINGTON      MOSUNNY   17   3  55 SW10      30.54S WCI   4
MARSHALL       CLOUDY    15   3  57 SW10      30.54S WCI   3
MOUNT PLEASANT SUNNY     18   2  49 SW9       30.50F WCI   7
MUSKEGON       PTSUNNY   17   3  54 W7        30.56S WCI   8
SOUTH HAVEN    MOSUNNY   17   4  55 W12       30.58S WCI   5
$$
MIZ016>042-272300-
NORTHERN LOWER MICHIGAN

CITY           SKY/WX    TMP DP  RH WIND       PRES   REMARKS
ALPENA         MIX PCPN  19  -1  41 W9G17     30.45R WCI   8
BEAVER ISLAND  SUNNY     13   3  64 SW14      30.46S WCI  -2
BELLAIRE       MOSUNNY   17   3  54 SW8       30.49S WCI   7
CADILLAC       SUNNY     14   1  54 SW10      30.42S WCI   2
CHARLEVOIX     SUNNY     14   4  66 W15       30.50S WCI  -2
FRANKFORT      MOSUNNY   16   6  63 SW9G18    30.50S WCI   5
GAYLORD        MOSUNNY   13   2  61 SW15      30.40S WCI  -3
GRAYLING       MOSUNNY   16   1  50 W8G16     30.43S WCI   5
HARBOR SPRINGS SUNNY     13   2  61 W8        30.46S WCI   2
HOUGHTON LAKE  MOSUNNY   16   2  54 W10       30.44S WCI   4
MANISTEE       CLOUDY    16   3  57 SW9       30.52S WCI   4
OSCODA         SUNNY     19   3  51 SW10      30.46S WCI   7
PELLSTON       MOSUNNY   13   2  61 W13G18    30.47R WCI  -2
ROGERS CITY    SUNNY     18   3  50 W8        30.45S WCI   8
TRAVERSE CITY  PTSUNNY   16   3  56 W9        30.48S WCI   4
$$
MIZ007>008-015-272300-
EASTERN UPPER MICHIGAN

CITY           SKY/WX    TMP DP  RH WIND       PRES   REMARKS
KINROSS        SUNNY     14   3  62 SW12      30.41S WCI   0
MACKINAC ISLAN SUNNY     11   3  70 SW13G21   30.45S WCI  -4
NEWBERRY       SUNNY     14  -2  48 W6        30.40R WCI   5
S. S. MARIE    SUNNY     15   0  51 NW6       30.40S WCI   6
MUNISING         N/A     11   1  64 VRB3      30.40S
$$
MIZ004>006-011>014-085-272300-
CENTRAL UPPER MICHIGAN

CITY           SKY/WX    TMP DP  RH WIND       PRES   REMARKS
MANISTIQUE     SUNNY     16   1  50 SW9       30.43R WCI   5
ESCANABA       SUNNY     16   3  57 S13G20    30.44S WCI   2
MENOMINEE      SUNNY     18  -2  41 SW7       30.44S WCI   8
SAWYER-GWINN   SUNNY     19  -4  35 W8        30.34S WCI   9
$$
MIZ001>003-009>011-084-272300-
WESTERN UPPER MICHIGAN

CITY           SKY/WX    TMP DP  RH WIND       PRES   REMARKS
IRON MOUNTAIN  SUNNY     21  -1  38 SW10      30.35F WCI  10
HOUGHTON       SUNNY     11  -3  53 W17G29    30.35R WCI  -6
COPPER HARBOR    N/A     15   1  53 VRB7      30.36S WCI   5
IRONWOOD       SUNNY     16  -6  38 W13       30.35F WCI   2
$$

ABBREVIATIONS USED IN REMARKS
   TC - TEMPERATURE IN CELSIUS
  WCI - WIND CHILL INDEX
   HX - HEAT INDEX
  VSB - VISIBILITY



USA.gov is the U.S. government's official web portal to all federal, state and local government web resources and services.